Location: Joffre
(52.3362°N, 113.5373°W)
Time: 08:16:19
(UTC+00:00)

Envisat - Pass Details

Date: 03 December 2021
Orbit: 764 x 766 km, 98.2° (Epoch: 17 January)

Event Time Altitude Azimuth Distance (km) Brightness Sun altitude
Rises 12:47:32 0° 14° (NNE) 3,248 6.3 -22.9°
Reaches altitude 10° 12:49:51 10° 16° (NNE) 2,316 5.6 -22.5°
Maximum altitude 12:54:59 85° 105° (ESE) 776 3.0 -21.7°
Drops below altitude 10° 13:00:04 10° 194° (SSW) 2,298 5.4 -21.0°
Sets 13:02:21 0° 195° (SSW) 3,220 6.2 -20.6°
